THOR ABLESTAR R/B, 703

Orbit data source: Space-Track

THOR ABLESTAR R/B, 703 is space debris in LEO originally from a launch on Thu, 05 Dec 1963 UTC launched from the Air Force Western Test Range (AFWTR). Debris objects in space refer to the collection of defunct objects orbiting the Earth. Examples of debris include non-operational satellites, rocket bodies, and fragments generated from explosions, collisions, or faulty payload assembly.

Loading next visibility...
Identifier
703, 1963-049A
Orbit
LEO
Country
Flag of USUS
Related business
Manufacturer
Aerojet
Mission
Spacecraft
Bus & Motor
ABLESTAR, Unknown motor
Mass
~600 kg wet, 600 kg dry
Launch date (UTC)
1963-12-05 (63 years ago)
Launch vehicle
Unknown
Launch site
Air Force Western Test Range (AFWTR)
Object type
Payload
Rocket body
Debris
Shape & HBR
CYL, 2.4 m
Radar Cross Section
Large (>1 m²)

Expand to show TLE details & history
Last TLE update: 13 hours ago

TLE from 13 hours ago
0 THOR ABLESTAR R/B
1   703U 63049A   26236.26803274  .00000052  00000-0  65945-4 0  9993
2   703  89.9202  69.6828 0018049  75.5093  99.0946 13.50004574 88442
Epoch: 2026-08-24T06:25Z
TLE epoch observation values (Epoch: 2026-08-24T06:25:58.028Z)
Latitude
5.10749°
Longitude
-179.36826°
Altitude
1,076.828 km
Speed
7.313 km/s
True Right ascension
16h 38m 42s
True Declination
5° 04' 42"
Sunlit
Object was in daylight at epoch
Visualization orbit readout
Latitude
Unknown
Longitude
Unknown
Altitude
Unknown
Speed
Unknown
Apparent Right ascension
Unknown
Apparent Declination
Unknown
Sunlit
N/A
Visualization observer readout
Local Sidereal Time
10:26:39
Azimuth
Unknown
Elevation
Unknown
Doppler factor
Unknown
Orbital elements
Apogee altitude
1,082.733 km
Perigee altitude
1,055.85 km
Semi-major axis
7,447.428 km
Eccentricity
0.0018
Inclination
89.9202°
RAAN
69.6828°
Arg. of periapsis
75.5093°
True anomaly
99.29875°
Mean anomaly
99.0946°
Eccentric anomaly
99.19668°
Mean motion
3.37702 °/min
Orbital period
106.6 mins
BSTAR
0.000065945
Loading maneuver chart data...
Computing Atmospheric mass density...
Loading historical data...
Loading historical data...
Loading historical data...
Loading historical data...
Loading historical data...
Loading historical data...
Loading historical data...

Documentation

Showing up to 5 results
|